Regional Weather Roundup
Issued by NWS

Home | Current Version | Previous Version | Graphics & Text | Print | Product List | Glossary On
Versions: 1 2 3 4 5 6 7 8 9 10 11 12 13 14 15 16 17 18 19 20 21 22 23 24 25 26 27 28 29 30 31 32 33 34 35 36 37 38 39 40 41 42 43 44 45 46 47 48 49 50
000
ASUS43 KFSD 312010
RWRSD

WEATHER ROUNDUP FOR SOUTH DAKOTA
NATIONAL WEATHER SERVICE SIOUX FALLS SD
200 PM CST SAT JAN 31 2015

NOTE: "FAIR" INDICATES FEW OR NO CLOUDS BELOW 12,000 FEET WITH NO
SIGNIFICANT WEATHER AND/OR OBSTRUCTIONS TO VISIBILITY.


SDZ001>005-009-010-012>017-312100-
NORTHWEST AND NORTH CENTRAL SOUTH DAKOTA

CITY           SKY/WX    TMP DP  RH WIND       PRES   REMARKS
BUFFALO          N/A     21  19  92 E15       29.95F WCI   8
FAITH            N/A     22  18  85 E16       30.05F WCI   8
MOBRIDGE       CLOUDY    20   9  62 E14G22    30.17S WCI   7
$$

SDZ012>016-024>037-041>051-057-063-072>074-312100-
SOUTHWEST AND SOUTH CENTRAL SOUTH DAKOTA

CITY           SKY/WX    TMP DP  RH WIND       PRES   REMARKS
RAPID CTY ARPT FOG       25  24  96 E10       29.99S VSB 1/4 WCI  15
PIERRE         CLOUDY    20  17  88 NE20      30.10F WCI   4
CUSTER         CLOUDY    30  18  60 E7        29.85F WCI  23
ELLSWORTH AFB  FRZ DRZL  25  25 100 E12       29.98  VSB<1/4 WCI  14
PHILIP         FOG       23  21  92 E13       30.07R VSB 1/2 WCI  11
PINE RIDGE     CLOUDY    29  24  82 E12       29.92F WCI  19
WINNER         FRZ RAIN  27  24  89 NE16      30.04F VSB<1/4 WCI  15
$$

SDZ004>011-016>023-039-040-312100-
NORTHEAST SOUTH DAKOTA

CITY           SKY/WX    TMP DP  RH WIND       PRES   REMARKS
ABERDEEN       PTSUNNY   18   3  52 NE17      30.22F WCI   3
WATERTOWN      CLOUDY    17  14  88 NE18G24   30.13F WCI   1
SISSETON         N/A     18   7  62 NE20      30.23F WCI   2
$$

SDZ017-020-022-023-036>040-048>070-312100-
SOUTHEAST SOUTH DAKOTA

CITY           SKY/WX    TMP DP  RH WIND       PRES   REMARKS
SIOUX FALLS    CLOUDY    27  24  89 E15       30.08F WCI  15
HURON          CLOUDY    22  16  78 NE16      30.14F WCI   8
CHAMBERLAIN    CLOUDY    22  21  96 NE13      30.08S FOG     WCI  10
MITCHELL       CLOUDY    24  22  91 NE15      30.11F FOG     WCI  11
YANKTON        CLOUDY    28  27  93 NE16      30.05F WCI  17
$$

ABBREVIATIONS USED IN REMARKS
   TC - TEMPERATURE IN CELSIUS
  WCI - WIND CHILL INDEX
   HX - HEAT INDEX
  VSB - VISIBILITY




USA.gov is the U.S. government's official web portal to all federal, state and local government web resources and services.